OSCAR 23

Last updated on Sat Sep 05 2026 00:03:34 GMT+0000 (Coordinated Universal Time)

1 19070U 88033A 26247.37091178 .00000093 00000+0 16763-3 0 9993 2 19070 90.3335 24.8007 0190169 161.1339 215.5366 13.27827420857782
UTC large
Height (km)
Speed (km/s)
/
Latitude / Longitude
Inclination (degrees)
Orbital Period (minutes)
Azimuth
Elevation
Range (km)
Doppler Factor

Next 0 passes for location: London (51.5072 / 0.1276)

No passes found over London.
OSCAR 23